When you browse on this site, cookies collect data to enhance your experience and personalize the content and advertising you see.
Visit our Privacy Policy to learn more. By continuing to use the site, you agree to this use of cookies and data.
  • In Österreich
  • Länderverzeichnis
  • Für 7 Tage
  • Wassertemperatur
  • Satellitenkarten
  • Wetterkarte
  • News
  • Widgets
  • user-avatar
    Anmelden

    Stündliche Wetter Bershad

    Heute, 23 April, Dienstag

    Zeit Temperatur Niederschläge Wind Luftdruck Luftfeuchtigkeit
    00:00 +9°C° 0 mm 2 m/S 751 mmHg 56%
    01:00 +9°C° 0 mm 2 m/S 751 mmHg 57%
    02:00 +8°C° 0 mm 2 m/S 751 mmHg 58%
    03:00 +8°C° 0 mm 2 m/S 751 mmHg 59%
    04:00 +8°C° 0 mm 2 m/S 751 mmHg 59%
    05:00 +8°C° 0 mm 2 m/S 752 mmHg 60%
    06:00 +10°C° 0 mm 2 m/S 752 mmHg 58%
    07:00 +12°C° 0 mm 2 m/S 752 mmHg 57%
    08:00 +12°C° 0 mm 3 m/S 752 mmHg 56%
    09:00 +13°C° 0 mm 3 m/S 752 mmHg 49%
    10:00 +15°C° 0 mm 4 m/S 753 mmHg 42%
    11:00 +17°C° 0 mm 4 m/S 753 mmHg 36%
    12:00 +17°C° 0 mm 4 m/S 753 mmHg 36%
    13:00 +17°C° 0 mm 4 m/S 753 mmHg 36%
    14:00 +17°C° 0 mm 4 m/S 753 mmHg 36%
    15:00 +17°C° 0 mm 4 m/S 752 mmHg 37%
    16:00 +17°C° 0 mm 4 m/S 752 mmHg 38%
    17:00 +17°C° 0 mm 4 m/S 752 mmHg 39%
    18:00 +14°C° 0 mm 4 m/S 752 mmHg 43%
    19:00 +13°C° 0 mm 3 m/S 752 mmHg 47%
    20:00 +12°C° 0 mm 3 m/S 752 mmHg 52%
    21:00 +11°C° 0 mm 3 m/S 752 mmHg 54%
    22:00 +10°C° 0 mm 2 m/S 752 mmHg 57%
    23:00 +9°C° 0 mm 2 m/S 752 mmHg 60%

    Morgen, 24 April, Mittwoch

    Zeit Temperatur Niederschläge Wind Luftdruck Luftfeuchtigkeit
    00:00 +9°C° 0 mm 2 m/S 752 mmHg 60%
    01:00 +8°C° 0 mm 2 m/S 752 mmHg 61%
    02:00 +8°C° 0 mm 2 m/S 753 mmHg 62%
    03:00 +7°C° 0 mm 2 m/S 752 mmHg 63%
    04:00 +7°C° 0 mm 2 m/S 752 mmHg 63%
    05:00 +7°C° 0 mm 2 m/S 752 mmHg 64%
    06:00 +8°C° 0 mm 3 m/S 752 mmHg 61%
    07:00 +10°C° 0 mm 4 m/S 752 mmHg 58%
    08:00 +11°C° 0 mm 4 m/S 753 mmHg 54%
    09:00 +13°C° 0 mm 5 m/S 753 mmHg 50%
    10:00 +14°C° 0 mm 6 m/S 753 mmHg 46%
    11:00 +15°C° 0 mm 6 m/S 753 mmHg 41%
    12:00 +16°C° 0 mm 6 m/S 753 mmHg 41%
    13:00 +16°C° 0 mm 6 m/S 753 mmHg 41%
    14:00 +17°C° 0 mm 5 m/S 752 mmHg 41%
    15:00 +17°C° 0 mm 5 m/S 752 mmHg 42%
    16:00 +17°C° 0 mm 5 m/S 752 mmHg 43%
    17:00 +16°C° 0 mm 5 m/S 752 mmHg 44%
    18:00 +15°C° 0 mm 4 m/S 752 mmHg 50%
    19:00 +13°C° 0 mm 3 m/S 752 mmHg 55%
    20:00 +12°C° 0 mm 3 m/S 752 mmHg 61%
    21:00 +12°C° 0 mm 2 m/S 752 mmHg 62%
    22:00 +10°C° 0 mm 2 m/S 752 mmHg 63%
    23:00 +10°C° 0 mm 2 m/S 752 mmHg 65%

    übermorgen, 25 April, Donnerstag

    Zeit Temperatur Niederschläge Wind Luftdruck Luftfeuchtigkeit
    00:00 +9°C° 0 mm 2 m/S 752 mmHg 66%
    01:00 +9°C° 0 mm 2 m/S 752 mmHg 67%
    02:00 +8°C° 0 mm 2 m/S 752 mmHg 69%
    03:00 +8°C° 0 mm 2 m/S 752 mmHg 70%
    04:00 +8°C° 0 mm 2 m/S 752 mmHg 72%
    05:00 +8°C° 0 mm 2 m/S 752 mmHg 73%
    06:00 +9°C° 0 mm 3 m/S 752 mmHg 70%
    07:00 +11°C° 0 mm 3 m/S 752 mmHg 66%
    08:00 +12°C° 0 mm 3 m/S 752 mmHg 63%
    09:00 +14°C° 0 mm 4 m/S 752 mmHg 57%
    10:00 +15°C° 0 mm 4 m/S 752 mmHg 51%
    11:00 +17°C° 0 mm 5 m/S 752 mmHg 45%
    12:00 +19°C° 0 mm 5 m/S 752 mmHg 44%
    13:00 +19°C° 0 mm 5 m/S 752 mmHg 42%
    14:00 +20°C° 0 mm 5 m/S 752 mmHg 40%
    15:00 +20°C° 0 mm 5 m/S 751 mmHg 41%
    16:00 +20°C° 0 mm 4 m/S 751 mmHg 42%
    17:00 +19°C° 0 mm 4 m/S 750 mmHg 43%
    18:00 +18°C° 0 mm 4 m/S 750 mmHg 48%
    19:00 +16°C° 0 mm 3 m/S 750 mmHg 52%
    20:00 +13°C° 0 mm 3 m/S 750 mmHg 57%
    21:00 +13°C° 0 mm 3 m/S 750 mmHg 59%
    22:00 +12°C° 0 mm 3 m/S 750 mmHg 61%
    23:00 +11°C° 0 mm 3 m/S 750 mmHg 63%

    26 April, Freitag

    Zeit Temperatur Niederschläge Wind Luftdruck Luftfeuchtigkeit
    00:00 +10°C° 0 mm 3 m/S 750 mmHg 66%
    01:00 +10°C° 0 mm 2 m/S 750 mmHg 69%
    02:00 +9°C° 0 mm 2 m/S 750 mmHg 72%
    03:00 +9°C° 0 mm 2 m/S 750 mmHg 73%
    04:00 +8°C° 0 mm 2 m/S 749 mmHg 74%
    05:00 +8°C° 0 mm 2 m/S 749 mmHg 76%
    06:00 +9°C° 0 mm 3 m/S 749 mmHg 70%
    07:00 +11°C° 0 mm 3 m/S 749 mmHg 64%
    08:00 +13°C° 0 mm 3 m/S 749 mmHg 58%
    09:00 +14°C° 0 mm 4 m/S 749 mmHg 52%
    10:00 +17°C° 0 mm 4 m/S 749 mmHg 45%
    11:00 +17°C° 0 mm 5 m/S 749 mmHg 39%
    12:00 +19°C° 0 mm 5 m/S 749 mmHg 38%
    13:00 +20°C° 0 mm 5 m/S 748 mmHg 36%
    14:00 +20°C° 0 mm 5 m/S 748 mmHg 35%
    15:00 +20°C° 0 mm 5 m/S 748 mmHg 37%
    16:00 +20°C° 0 mm 5 m/S 747 mmHg 38%
    17:00 +20°C° 0 mm 4 m/S 747 mmHg 40%
    18:00 +18°C° 0 mm 4 m/S 747 mmHg 45%
    19:00 +17°C° 0 mm 4 m/S 747 mmHg 50%
    20:00 +14°C° 0 mm 3 m/S 747 mmHg 55%
    21:00 +13°C° 0 mm 3 m/S 747 mmHg 57%
    22:00 +13°C° 0 mm 3 m/S 747 mmHg 58%
    23:00 +12°C° 0 mm 3 m/S 747 mmHg 60%

    27 April, Samstag

    Zeit Temperatur Niederschläge Wind Luftdruck Luftfeuchtigkeit
    00:00 +11°C° 0 mm 3 m/S 747 mmHg 62%
    01:00 +11°C° 0 mm 3 m/S 746 mmHg 64%
    02:00 +10°C° 0 mm 2 m/S 746 mmHg 65%
    03:00 +10°C° 0 mm 2 m/S 746 mmHg 67%
    04:00 +9°C° 0 mm 2 m/S 746 mmHg 68%
    05:00 +9°C° 0 mm 2 m/S 746 mmHg 69%
    06:00 +11°C° 0 mm 3 m/S 746 mmHg 65%
    07:00 +12°C° 0 mm 4 m/S 746 mmHg 61%
    08:00 +14°C° 0 mm 4 m/S 746 mmHg 57%
    09:00 +16°C° 0 mm 5 m/S 746 mmHg 54%
    10:00 +17°C° 0 mm 5 m/S 746 mmHg 50%
    11:00 +20°C° 0 mm 5 m/S 745 mmHg 46%
    12:00 +20°C° 0 mm 6 m/S 745 mmHg 45%
    13:00 +21°C° 0 mm 6 m/S 745 mmHg 43%
    14:00 +22°C° 0 mm 6 m/S 744 mmHg 41%
    15:00 +22°C° 0 mm 5 m/S 744 mmHg 43%
    16:00 +21°C° 0 mm 5 m/S 743 mmHg 44%
    17:00 +21°C° 0 mm 5 m/S 743 mmHg 46%
    18:00 +20°C° 0 mm 5 m/S 743 mmHg 52%
    19:00 +17°C° 0 mm 5 m/S 743 mmHg 58%
    20:00 +15°C° 0 mm 4 m/S 743 mmHg 64%
    21:00 +14°C° 0 mm 4 m/S 743 mmHg 66%
    22:00 +13°C° 0 mm 4 m/S 743 mmHg 69%
    23:00 +13°C° 0 mm 3 m/S 743 mmHg 71%

    28 April, Sonntag

    Zeit Temperatur Niederschläge Wind Luftdruck Luftfeuchtigkeit
    00:00 +12°C° 0 mm 3 m/S 743 mmHg 72%
    01:00 +11°C° 0 mm 3 m/S 743 mmHg 73%
    02:00 +11°C° 0 mm 3 m/S 743 mmHg 75%
    03:00 +10°C° 0 mm 3 m/S 743 mmHg 76%
    04:00 +10°C° 0 mm 3 m/S 742 mmHg 78%
    05:00 +9°C° 0 mm 3 m/S 742 mmHg 79%
    06:00 +11°C° 0 mm 4 m/S 743 mmHg 74%
    07:00 +13°C° 0 mm 4 m/S 743 mmHg 69%
    08:00 +14°C° 0 mm 5 m/S 743 mmHg 63%
    09:00 +16°C° 0 mm 5 m/S 743 mmHg 58%
    10:00 +17°C° 0 mm 5 m/S 743 mmHg 53%
    11:00 +20°C° 0 mm 5 m/S 743 mmHg 48%
    12:00 +20°C° 0 mm 5 m/S 743 mmHg 46%
    13:00 +20°C° 0 mm 5 m/S 743 mmHg 45%
    14:00 +21°C° 0 mm 4 m/S 743 mmHg 44%
    15:00 +21°C° 0 mm 4 m/S 743 mmHg 45%
    16:00 +21°C° 0 mm 3 m/S 742 mmHg 46%
    17:00 +20°C° 0 mm 3 m/S 742 mmHg 47%
    18:00 +19°C° 0 mm 2 m/S 742 mmHg 51%
    19:00 +18°C° 0 mm 2 m/S 742 mmHg 55%
    20:00 +16°C° 0 mm 1 m/S 742 mmHg 60%
    21:00 +16°C° 0 mm 2 m/S 743 mmHg 63%
    22:00 +15°C° 0 mm 2 m/S 743 mmHg 66%
    23:00 +15°C° 0 mm 2 m/S 743 mmHg 69%
    Mehr zeigen